This is the latest recevied weather packets stored in our database for station/object N1HQ. If no packets are shown the sender has not sent any weather packets the latest 1 day(s).
| Time | Temp. | Humidity | Pressure | Rain* | Wind** | Luminosity | Snow |
|---|---|---|---|---|---|---|---|
| 1778012503 | 26.67° C | 64% | 1012.8 hPa | 0 mm | 2.24 m/s, 148° | - | - |
| 1778012254 | 26.67° C | 63% | 1012.9 hPa | 0 mm | 2.24 m/s, 163° | - | - |
| 1778011973 | 27.22° C | 64% | 1012.9 hPa | 0 mm | 2.24 m/s, 132° | - | - |
| 1778011703 | 27.22° C | 61% | 1012.9 hPa | 0 mm | 1.79 m/s, 155° | - | - |
| 1778011461 | 27.22° C | 62% | 1013 hPa | 0 mm | 1.79 m/s, 165° | - | - |
| 1778011208 | 27.22° C | 63% | 1013.1 hPa | 0 mm | 1.79 m/s, 155° | - | - |
| 1778010945 | 27.78° C | 64% | 1013.2 hPa | 0 mm | 1.79 m/s, 154° | - | - |
| 1778010653 | 27.22° C | 62% | 1013.3 hPa | 0 mm | 1.79 m/s, 240° | - | - |
| 1778010393 | 27.22° C | 63% | 1013.2 hPa | 0 mm | 2.24 m/s, 98° | - | - |
| 1778010133 | 27.22° C | 64% | 1013.2 hPa | 0 mm | 2.24 m/s, 107° | - | - |
| 1778009879 | 27.78° C | 63% | 1013.2 hPa | 0 mm | 1.79 m/s, 103° | - | - |
| 1778009603 | 27.78° C | 66% | 1013.2 hPa | 0 mm | 1.79 m/s, 162° | - | - |
| 1778009333 | 27.78° C | 64% | 1013.2 hPa | 0 mm | 1.79 m/s, 144° | - | - |
| 1778009043 | 27.22° C | 62% | 1013.2 hPa | 0 mm | 2.24 m/s, 217° | - | - |
| 1778008753 | 27.78° C | 62% | 1013.2 hPa | 0 mm | 1.79 m/s, 122° | - | - |
| 1778008463 | 27.78° C | 62% | 1013.2 hPa | 0 mm | 1.79 m/s, 136° | - | - |
| 1778008173 | 27.78° C | 63% | 1013.2 hPa | 0 mm | 1.79 m/s, 188° | - | - |
| 1778007873 | 27.78° C | 64% | 1013.5 hPa | 0 mm | 1.79 m/s, 155° | - | - |
| 1778007573 | 27.78° C | 67% | 1013.6 hPa | 0 mm | 1.79 m/s, 158° | - | - |
| 1778007288 | 27.78° C | 66% | 1013.7 hPa | 0 mm | 1.34 m/s, 82° | - | - |
| 1778007038 | 27.22° C | 64% | 1013.6 hPa | 0 mm | 1.79 m/s, 115° | - | - |
| 1778006753 | 27.22° C | 65% | 1013.7 hPa | 0 mm | 1.79 m/s, 221° | - | - |
| 1778006495 | 27.78° C | 65% | 1013.8 hPa | 0 mm | 1.79 m/s, 167° | - | - |
| 1778006243 | 27.78° C | 66% | 1013.7 hPa | 0 mm | 1.79 m/s, 138° | - | - |
| 1778005967 | 27.22° C | 66% | 1013.7 hPa | 0 mm | 1.79 m/s, 161° | - | - |
* Rain latest hour (hover to see other rain measurements)
** Current wind speed in m/s (hover to see current wind gust speed)